Regional Weather Roundup
Issued by NWS

Home | Current Version | Previous Version | Text Only | Print | Product List | Glossary Off
Versions: 1 2 3 4 5 6 7 8 9 10 11 12 13 14 15 16 17 18 19 20 21 22 23 24 25 26 27 28 29 30 31 32 33 34 35 36 37 38 39 40 41 42 43 44 45 46 47 48 49 50

000
ASUS43 KBIS 040310
RWRND

NORTH DAKOTA REGIONAL WEATHER ROUNDUP
NATIONAL WEATHER SERVICE BISMARCK ND
1000 PM CDT MON AUG 03 2015

NOTE: "FAIR" INDICATES FEW OR NO CLOUDS BELOW 12,000 FEET WITH NO
SIGNIFICANT WEATHER AND/OR OBSTRUCTIONS TO VISIBILITY.


NDZ001>003-009>011-017-040400-
NORTHWEST NORTH DAKOTA

CITY           SKY/WX    TMP DP  RH WIND       PRES   REMARKS
WILLISTON      CLEAR     73  48  41 E8        29.96R
MINOT          CLEAR     67  49  52 SE3       29.95R
MINOT AFB      CLEAR     66  54  64 S5        29.95R
$$

NDZ018>021-031>035-040>046-040400-
SOUTHWEST NORTH DAKOTA

CITY           SKY/WX    TMP DP  RH WIND       PRES   REMARKS
BISMARCK       CLEAR     68  50  52 NE5       29.97R
DICKINSON      CLEAR     64  51  62 E10       29.97R
GARRISON         N/A     66  53  63 CALM      29.97R
HETTINGER ARPT MOCLDY    70  53  54 E10       29.98S
$$

NDZ004>008-012>016-024-026-027-054-040400-
NORTHEAST NORTH DAKOTA

CITY           SKY/WX    TMP DP  RH WIND       PRES   REMARKS
GRAND FORKS    CLEAR     61  51  70 CALM      29.90S
GRND FRKS AFB  CLEAR     58  52  80 W5        29.91S
DEVILS LAKE    CLEAR     64  46  52 CALM      29.94R
$$

NDZ022-023-025-028>030-036>039-047>053-040400-
SOUTHEAST NORTH DAKOTA

CITY           SKY/WX    TMP DP  RH WIND       PRES   REMARKS
FARGO          CLEAR     62  51  67 CALM      29.93R
JAMESTOWN      CLEAR     62  53  72 CALM      29.96R
$$



USA.gov is the U.S. government's official web portal to all federal, state and local government web resources and services.